Starlink 31967

operational
NORAD ID: 60021 Int'l Des: 2024-111 Owner: SPXS Country: US Constellation: starlink
LEOCIRCULAR

About Starlink 31967

Description loading...

Live Position

Loading 3D Globe...

Upcoming Passes

Altitude History

Altitude vs Time

uPlot chart will show altitude changes over time

Two-Line Element Set

1 60021U 24111F 25259.46983854 -.00001538 00000-0 -39856-4 0 9992
2 60021 53.1591 164.5752 0001226 70.3293 289.7840 15.30176184 72373
Epoch: Sep 16, 2025 • Age: 14 hours

Current Status

Altitude 476.4 km
Velocity 7.63 km/s
Sub-Earth Point 30.69°N, 168.48°E
Launch Date Jun 8, 2024
Age 1.2 years
Type internet

Technical Details

Classification Payload
Mass 730.00 kg
Dry Mass 700.00 kg
Total Mass 730.00 kg
Length 0.30 m
Diameter 4.10 m
Span 29.00 m
Shape Box + pan
Manufacturer SPXS
Bus Type Starlink V2M
Phase Status In Orbit
Owner/State SPXS/US

Large Constellations

Loading constellations...